Location: Bucharest
(44.4268°N, 26.1025°E)
Time: 12:14:49
(UTC+03:00)

CUBESAT XI-V - Pass Details

Date: 02 July 2022
Orbit: 668 x 690 km, 98.1° (Epoch: 14 August)

Event Time Altitude Azimuth Distance (km) Brightness Sun altitude
Exits shadow 01:38:37 - 107° (ESE) 2,271 ? -22.4°
Reaches altitude 10° 01:39:13 10° 102° (ESE) 2,106 ? -22.4°
Maximum altitude 01:42:08 17° 62° (ENE) 1,687 ? -22.3°
Drops below altitude 10° 01:45:03 10° 22° (NNE) 2,109 ? -22.3°
Sets 01:47:57 0° 3° (N) 3,025 ? -22.2°
